Time,TemperatureF,DewpointF,PressureIn,WindDirection,WindDirectionDegrees,WindSpeedMPH,WindSpeedGustMPH,Humidity,HourlyPrecipIn,Conditions,Clouds,dailyrainin,SoftwareType,DateUTC
2013-02-12 00:09:00,30.6,24.0,30.15,NNW,331,0.0,3.0,76,0.00,,---,0.00,VWS V14.01,2013-02-12 06:09:00,
2013-02-12 00:24:00,29.3,23.0,30.15,NNW,331,0.0,0.0,77,0.00,,---,0.00,VWS V14.01,2013-02-12 06:24:00,
2013-02-12 00:39:00,28.9,22.9,30.16,NNW,331,0.0,0.0,78,0.00,,---,0.00,VWS V14.01,2013-02-12 06:39:00,
2013-02-12 00:54:00,28.3,22.6,30.16,NNW,331,0.0,1.0,79,0.00,,---,0.00,VWS V14.01,2013-02-12 06:54:00,
2013-02-12 01:09:00,27.6,22.0,30.16,NNW,331,0.0,0.0,79,0.00,,---,0.00,VWS V14.01,2013-02-12 07:09:00,
2013-02-12 01:24:00,27.2,22.1,30.16,NNW,331,0.0,0.0,81,0.00,,---,0.00,VWS V14.01,2013-02-12 07:24:00,
2013-02-12 01:39:00,26.9,22.4,30.17,NNW,331,0.0,0.0,83,0.00,,---,0.00,VWS V14.01,2013-02-12 07:39:00,
2013-02-12 01:54:00,27.0,22.8,30.17,NNW,331,0.0,1.0,84,0.00,,---,0.00,VWS V14.01,2013-02-12 07:54:00,
2013-02-12 02:09:00,26.0,20.7,30.16,NNW,331,0.0,0.0,80,0.00,,---,0.00,VWS V14.01,2013-02-12 08:09:00,
2013-02-12 02:24:00,25.4,21.5,30.16,NNW,331,2.0,4.0,85,0.00,,---,0.00,VWS V14.01,2013-02-12 08:24:00,
2013-02-12 02:39:00,26.0,21.8,30.15,NNW,331,0.0,3.0,84,0.00,,---,0.00,VWS V14.01,2013-02-12 08:39:00,
2013-02-12 02:54:00,25.4,21.2,30.14,NNW,331,0.0,0.0,84,0.00,,---,0.00,VWS V14.01,2013-02-12 08:54:00,
2013-02-12 03:09:00,24.8,20.9,30.14,NNW,331,0.0,2.0,85,0.00,,---,0.00,VWS V14.01,2013-02-12 09:09:00,
2013-02-12 03:24:00,24.6,21.0,30.14,NNW,331,0.0,0.0,86,0.00,,---,0.00,VWS V14.01,2013-02-12 09:24:00,
2013-02-12 03:39:00,24.4,21.1,30.14,NNW,331,0.0,0.0,87,0.00,,---,0.00,VWS V14.01,2013-02-12 09:39:00,
2013-02-12 03:54:00,24.4,21.4,30.13,NNW,331,0.0,0.0,88,0.00,,---,0.00,VWS V14.01,2013-02-12 09:54:00,
2013-02-12 04:09:00,24.3,21.3,30.13,NNW,331,0.0,0.0,88,0.00,,---,0.00,VWS V14.01,2013-02-12 10:09:00,
2013-02-12 04:24:00,24.1,21.3,30.14,NNW,331,0.0,0.0,89,0.00,,---,0.00,VWS V14.01,2013-02-12 10:24:00,
2013-02-12 04:39:00,23.8,21.0,30.13,NNW,331,0.0,0.0,89,0.00,,---,0.00,VWS V14.01,2013-02-12 10:39:00,
2013-02-12 04:54:00,23.8,21.3,30.13,NNW,331,0.0,0.0,90,0.00,,---,0.00,VWS V14.01,2013-02-12 10:54:00,
2013-02-12 05:09:00,23.8,21.3,30.14,NNW,331,0.0,0.0,90,0.00,,---,0.00,VWS V14.01,2013-02-12 11:09:00,
2013-02-12 05:24:00,23.6,21.1,30.14,NNW,331,0.0,0.0,90,0.00,,---,0.00,VWS V14.01,2013-02-12 11:24:00,
2013-02-12 05:39:00,23.1,20.6,30.14,NNW,331,0.0,0.0,90,0.00,,---,0.00,VWS V14.01,2013-02-12 11:39:00,
2013-02-12 05:54:00,23.1,20.9,30.14,NNW,331,0.0,0.0,91,0.00,,---,0.00,VWS V14.01,2013-02-12 11:54:00,
2013-02-12 06:09:00,23.3,21.3,30.14,NNW,331,0.0,0.0,92,0.00,,---,0.00,VWS V14.01,2013-02-12 12:09:00,
2013-02-12 06:24:00,23.0,20.8,30.13,NNW,331,0.0,0.0,91,0.00,,---,0.00,VWS V14.01,2013-02-12 12:24:00,
2013-02-12 06:39:00,22.7,20.7,30.13,NNW,331,0.0,0.0,92,0.00,,---,0.00,VWS V14.01,2013-02-12 12:39:00,
2013-02-12 06:54:00,22.3,20.3,30.13,NNW,331,0.0,0.0,92,0.00,,---,0.00,VWS V14.01,2013-02-12 12:54:00,
2013-02-12 07:09:00,22.1,20.1,30.11,NNW,331,0.0,1.0,92,0.00,,---,0.00,VWS V14.01,2013-02-12 13:09:00,
2013-02-12 07:24:00,22.5,20.8,30.12,NNW,331,0.0,1.0,93,0.00,,---,0.00,VWS V14.01,2013-02-12 13:24:00,
2013-02-12 07:39:00,22.8,21.1,30.12,NNW,331,0.0,0.0,93,0.00,,---,0.00,VWS V14.01,2013-02-12 13:39:00,
2013-02-12 07:54:00,23.6,22.1,30.12,NNW,331,0.0,0.0,94,0.00,,---,0.00,VWS V14.01,2013-02-12 13:54:00,
2013-02-12 08:09:00,24.7,23.2,30.13,NNW,331,0.0,0.0,94,0.00,,---,0.00,VWS V14.01,2013-02-12 14:09:00,
2013-02-12 08:24:00,25.9,24.4,30.13,NNW,331,0.0,2.0,94,0.00,,---,0.00,VWS V14.01,2013-02-12 14:24:00,
2013-02-12 08:39:00,26.7,25.2,30.13,NNW,331,0.0,2.0,94,0.00,,---,0.00,VWS V14.01,2013-02-12 14:39:00,
2013-02-12 08:54:00,27.7,25.9,30.13,East,80,5.0,5.0,93,0.00,,---,0.00,VWS V14.01,2013-02-12 14:54:00,
2013-02-12 09:09:00,28.7,26.7,30.12,ESE,102,0.0,7.0,92,0.00,,---,0.00,VWS V14.01,2013-02-12 15:09:00,
2013-02-12 09:24:00,29.5,26.9,30.12,ESE,102,0.0,5.0,90,0.00,,---,0.00,VWS V14.01,2013-02-12 15:24:00,
2013-02-12 09:39:00,30.3,27.5,30.11,ESE,102,1.0,6.0,89,0.00,,---,0.00,VWS V14.01,2013-02-12 15:39:00,
2013-02-12 09:54:00,31.1,27.7,30.10,ESE,102,0.0,4.0,87,0.00,,---,0.00,VWS V14.01,2013-02-12 15:54:00,
2013-02-12 10:09:00,31.9,28.2,30.10,ESE,102,0.0,5.0,86,0.00,,---,0.00,VWS V14.01,2013-02-12 16:09:00,
2013-02-12 10:24:00,32.9,28.9,30.10,ESE,102,2.0,6.0,85,0.00,,---,0.00,VWS V14.01,2013-02-12 16:24:00,
2013-02-12 10:39:00,33.6,29.0,30.11,SE,136,1.0,7.0,83,0.00,,---,0.00,VWS V14.01,2013-02-12 16:39:00,
2013-02-12 10:54:00,33.9,29.3,30.11,SE,136,0.0,5.0,83,0.00,,---,0.00,VWS V14.01,2013-02-12 16:54:00,
2013-02-12 11:09:00,34.6,29.4,30.11,SE,136,4.0,5.0,81,0.00,,---,0.00,VWS V14.01,2013-02-12 17:09:00,
2013-02-12 11:24:00,35.1,29.3,30.10,SE,136,1.0,4.0,79,0.00,,---,0.00,VWS V14.01,2013-02-12 17:24:00,
2013-02-12 11:39:00,35.6,29.4,30.10,SE,136,1.0,5.0,78,0.00,,---,0.00,VWS V14.01,2013-02-12 17:39:00,
2013-02-12 11:54:00,36.4,29.9,30.09,SE,136,2.0,5.0,77,0.00,,---,0.00,VWS V14.01,2013-02-12 17:54:00,
2013-02-12 12:09:00,37.0,29.8,30.09,SE,136,2.0,5.0,75,0.00,,---,0.00,VWS V14.01,2013-02-12 18:09:00,
2013-02-12 12:24:00,37.6,29.4,30.08,SE,136,1.0,6.0,72,0.00,,---,0.00,VWS V14.01,2013-02-12 18:24:00,
2013-02-12 12:39:00,38.3,29.7,30.07,SE,136,4.0,6.0,71,0.00,,---,0.00,VWS V14.01,2013-02-12 18:39:00,
2013-02-12 12:54:00,38.9,29.2,30.07,SSE,155,5.0,8.0,68,0.00,,---,0.00,VWS V14.01,2013-02-12 18:54:00,
2013-02-12 13:09:00,39.8,29.0,30.07,SSE,155,1.0,6.0,65,0.00,,---,0.00,VWS V14.01,2013-02-12 19:09:00,
2013-02-12 13:24:00,40.4,28.4,30.06,SSE,164,7.0,8.0,62,0.00,,---,0.00,VWS V14.01,2013-02-12 19:24:00,
2013-02-12 13:39:00,40.8,27.2,30.05,SSE,163,6.0,8.0,58,0.00,,---,0.00,VWS V14.01,2013-02-12 19:39:00,
2013-02-12 13:54:00,41.3,28.1,30.04,SSE,161,1.0,9.0,59,0.00,,---,0.00,VWS V14.01,2013-02-12 19:54:00,
2013-02-12 14:09:00,41.6,27.1,30.04,SSE,162,1.0,7.0,56,0.00,,---,0.00,VWS V14.01,2013-02-12 20:09:00,
2013-02-12 14:24:00,42.1,27.5,30.03,SSE,165,6.0,8.0,56,0.00,,---,0.00,VWS V14.01,2013-02-12 20:24:00,
2013-02-12 14:39:00,42.4,27.4,30.02,SSE,165,4.0,8.0,55,0.00,,---,0.00,VWS V14.01,2013-02-12 20:39:00,
2013-02-12 14:54:00,42.6,27.1,30.02,South,178,0.0,9.0,54,0.00,,---,0.00,VWS V14.01,2013-02-12 20:54:00,
2013-02-12 15:09:00,42.4,27.0,30.01,South,169,5.0,10.0,54,0.00,,---,0.00,VWS V14.01,2013-02-12 21:09:00,
2013-02-12 15:24:00,42.4,27.4,30.00,South,171,0.0,9.0,55,0.00,,---,0.00,VWS V14.01,2013-02-12 21:24:00,
2013-02-12 15:39:00,42.6,27.1,30.00,South,173,4.0,8.0,54,0.00,,---,0.00,VWS V14.01,2013-02-12 21:39:00,
2013-02-12 15:54:00,42.3,26.9,29.99,South,169,4.0,8.0,54,0.00,,---,0.00,VWS V14.01,2013-02-12 21:54:00,
2013-02-12 16:09:00,41.9,26.9,29.99,South,169,4.0,7.0,55,0.00,,---,0.00,VWS V14.01,2013-02-12 22:09:00,
2013-02-12 16:24:00,41.7,26.7,29.98,South,173,4.0,8.0,55,0.00,,---,0.00,VWS V14.01,2013-02-12 22:24:00,
2013-02-12 16:39:00,41.5,26.1,29.98,South,173,2.0,6.0,54,0.00,,---,0.00,VWS V14.01,2013-02-12 22:39:00,
2013-02-12 16:54:00,41.2,25.4,29.98,South,173,6.0,8.0,53,0.00,,---,0.00,VWS V14.01,2013-02-12 22:54:00,
2013-02-12 17:09:00,40.9,25.5,29.98,South,174,2.0,8.0,54,0.00,,---,0.00,VWS V14.01,2013-02-12 23:09:00,
2013-02-12 17:24:00,40.4,26.0,29.98,South,174,1.0,6.0,56,0.00,,---,0.00,VWS V14.01,2013-02-12 23:24:00,
2013-02-12 17:39:00,39.9,26.3,29.98,South,174,1.0,5.0,58,0.00,,---,0.00,VWS V14.01,2013-02-12 23:39:00,
2013-02-12 17:54:00,39.3,26.2,29.98,South,174,2.0,4.0,59,0.00,,---,0.00,VWS V14.01,2013-02-12 23:54:00,
2013-02-12 18:09:00,38.7,26.0,29.98,South,174,0.0,4.0,60,0.00,,---,0.00,VWS V14.01,2013-02-13 00:09:00,
2013-02-12 18:24:00,38.1,25.9,29.97,South,174,2.0,6.0,61,0.00,,---,0.00,VWS V14.01,2013-02-13 00:24:00,
2013-02-12 18:39:00,37.7,25.9,29.97,South,174,5.0,6.0,62,0.00,,---,0.00,VWS V14.01,2013-02-13 00:39:00,
2013-02-12 18:54:00,37.2,25.8,29.97,South,174,0.0,6.0,63,0.00,,---,0.00,VWS V14.01,2013-02-13 00:54:00,
2013-02-12 19:09:00,36.8,25.8,29.97,South,174,4.0,6.0,64,0.00,,---,0.00,VWS V14.01,2013-02-13 01:09:00,
2013-02-12 19:24:00,36.6,25.6,29.97,South,174,2.0,6.0,64,0.00,,---,0.00,VWS V14.01,2013-02-13 01:24:00,
2013-02-12 19:39:00,36.1,25.5,29.97,South,174,2.0,6.0,65,0.00,,---,0.00,VWS V14.01,2013-02-13 01:39:00,
2013-02-12 19:54:00,35.8,25.2,29.97,South,174,2.0,7.0,65,0.00,,---,0.00,VWS V14.01,2013-02-13 01:54:00,
2013-02-12 20:09:00,35.6,25.4,29.97,South,174,1.0,6.0,66,0.00,,---,0.00,VWS V14.01,2013-02-13 02:09:00,
2013-02-12 20:24:00,35.2,25.0,29.97,South,174,1.0,6.0,66,0.00,,---,0.00,VWS V14.01,2013-02-13 02:24:00,
2013-02-12 20:39:00,34.7,25.2,29.97,South,174,6.0,8.0,68,0.00,,---,0.00,VWS V14.01,2013-02-13 02:39:00,
2013-02-12 20:54:00,34.9,25.4,29.97,South,177,4.0,8.0,68,0.00,,---,0.00,VWS V14.01,2013-02-13 02:54:00,
2013-02-12 21:09:00,34.5,25.4,29.96,South,177,4.0,6.0,69,0.00,,---,0.00,VWS V14.01,2013-02-13 03:09:00,
2013-02-12 21:24:00,34.2,25.1,29.96,South,177,2.0,6.0,69,0.00,,---,0.00,VWS V14.01,2013-02-13 03:24:00,
2013-02-12 21:39:00,34.1,25.0,29.96,South,177,2.0,7.0,69,0.00,,---,0.00,VWS V14.01,2013-02-13 03:39:00,
2013-02-12 21:54:00,33.8,24.7,29.96,South,177,4.0,6.0,69,0.00,,---,0.00,VWS V14.01,2013-02-13 03:54:00,
2013-02-12 22:09:00,33.9,24.8,29.96,South,177,2.0,7.0,69,0.00,,---,0.00,VWS V14.01,2013-02-13 04:09:00,
2013-02-12 22:24:00,34.1,24.7,29.95,South,182,4.0,8.0,68,0.00,,---,0.00,VWS V14.01,2013-02-13 04:24:00,
2013-02-12 22:39:00,33.9,24.8,29.95,South,184,4.0,7.0,69,0.00,,---,0.00,VWS V14.01,2013-02-13 04:39:00,
2013-02-12 22:54:00,33.6,24.5,29.95,South,184,2.0,6.0,69,0.00,,---,0.00,VWS V14.01,2013-02-13 04:54:00,
2013-02-12 23:09:00,33.1,24.4,29.95,South,184,1.0,3.0,70,0.00,,---,0.00,VWS V14.01,2013-02-13 05:09:00,
2013-02-12 23:24:00,33.0,24.3,29.94,South,184,5.0,7.0,70,0.00,,---,0.00,VWS V14.01,2013-02-13 05:24:00,
2013-02-12 23:39:00,32.9,24.2,29.94,South,184,5.0,6.0,70,0.00,,---,0.00,VWS V14.01,2013-02-13 05:39:00,
2013-02-12 23:54:00,32.9,24.2,29.94,South,188,5.0,8.0,70,0.00,,---,0.00,VWS V14.01,2013-02-13 05:54:00,